Time,TemperatureF,DewpointF,PressureIn,WindDirection,WindDirectionDegrees,WindSpeedMPH,WindSpeedGustMPH,Humidity,HourlyPrecipIn,Conditions,Clouds,dailyrainin,SoftwareType,DateUTC
2013-02-24 00:00:00,28.1,26.0,29.77,North,352,3.0,6.0,90,0.00,,,0.05,weatherlink.com 1.10,2013-02-24 07:00:00,
2013-02-24 00:15:00,28.1,26.0,29.77,NNW,330,3.0,5.0,91,0.00,,,0.00,weatherlink.com 1.10,2013-02-24 07:15:00,
2013-02-24 00:30:00,28.2,26.0,29.78,NNE,20,0.0,4.0,91,0.00,,,0.00,weatherlink.com 1.10,2013-02-24 07:30:00,
2013-02-24 00:45:00,28.3,26.0,29.78,NNW,348,2.0,5.0,91,0.00,,,0.00,weatherlink.com 1.10,2013-02-24 07:45:00,
2013-02-24 01:00:00,28.2,26.0,29.78,NNE,22,1.0,7.0,91,0.00,,,0.00,weatherlink.com 1.10,2013-02-24 08:00:00,
2013-02-24 01:15:00,28.2,26.0,29.78,ENE,60,2.0,5.0,91,0.00,,,0.00,weatherlink.com 1.10,2013-02-24 08:15:00,
2013-02-24 01:30:00,28.1,26.0,29.77,NW,326,1.0,6.0,91,0.00,,,0.00,weatherlink.com 1.10,2013-02-24 08:30:00,
2013-02-24 01:45:00,28.2,26.0,29.78,NE,40,4.0,6.0,91,0.00,,,0.00,weatherlink.com 1.10,2013-02-24 08:45:00,
2013-02-24 02:00:00,28.1,26.0,29.77,NE,53,1.0,6.0,91,0.00,,,0.00,weatherlink.com 1.10,2013-02-24 09:00:00,
2013-02-24 02:15:00,28.2,26.0,29.78,NW,326,0.0,3.0,91,0.00,,,0.00,weatherlink.com 1.10,2013-02-24 09:15:00,
2013-02-24 02:30:00,28.3,26.0,29.78,ENE,60,1.0,4.0,91,0.00,,,0.00,weatherlink.com 1.10,2013-02-24 09:30:00,
2013-02-24 02:45:00,28.2,26.0,29.77,NNE,30,2.0,4.0,91,0.00,,,0.00,weatherlink.com 1.10,2013-02-24 09:45:00,
2013-02-24 03:00:00,28.1,26.0,29.76,NNE,30,2.0,5.0,91,0.00,,,0.00,weatherlink.com 1.10,2013-02-24 10:00:00,
2013-02-24 03:15:00,27.9,26.0,29.76,NNE,30,2.0,6.0,91,0.00,,,0.00,weatherlink.com 1.10,2013-02-24 10:15:00,
2013-02-24 03:30:00,27.8,26.0,29.75,NW,305,2.0,6.0,92,0.00,,,0.00,weatherlink.com 1.10,2013-02-24 10:30:00,
2013-02-24 03:45:00,27.7,26.0,29.76,NNE,15,3.0,5.0,92,0.00,,,0.00,weatherlink.com 1.10,2013-02-24 10:45:00,
2013-02-24 04:00:00,27.8,26.0,29.77,NNE,30,2.0,3.0,92,0.00,,,0.00,weatherlink.com 1.10,2013-02-24 11:00:00,
2013-02-24 04:15:00,27.9,26.0,29.78,ENE,73,0.0,2.0,92,0.00,,,0.00,weatherlink.com 1.10,2013-02-24 11:15:00,
2013-02-24 04:30:00,27.8,26.0,29.77,NNE,19,2.0,5.0,92,0.00,,,0.00,weatherlink.com 1.10,2013-02-24 11:30:00,
2013-02-24 04:45:00,27.8,26.0,29.78,North,9,1.0,5.0,92,0.00,,,0.00,weatherlink.com 1.10,2013-02-24 11:45:00,
2013-02-24 05:00:00,27.8,26.0,29.79,ENE,72,1.0,6.0,92,0.00,,,0.00,weatherlink.com 1.10,2013-02-24 12:00:00,
2013-02-24 05:15:00,27.7,26.0,29.78,North,358,1.0,6.0,92,0.00,,,0.00,weatherlink.com 1.10,2013-02-24 12:15:00,
2013-02-24 05:30:00,27.5,26.0,29.79,NNE,30,0.0,4.0,92,0.00,,,0.00,weatherlink.com 1.10,2013-02-24 12:30:00,
2013-02-24 05:45:00,27.5,26.0,29.79,NNW,346,4.0,4.0,92,0.00,,,0.00,weatherlink.com 1.10,2013-02-24 12:45:00,
2013-02-24 06:00:00,27.5,26.0,29.79,East,80,1.0,3.0,92,0.00,,,0.00,weatherlink.com 1.10,2013-02-24 13:00:00,
2013-02-24 06:15:00,27.5,26.0,29.80,NE,44,2.0,3.0,93,0.00,,,0.00,weatherlink.com 1.10,2013-02-24 13:15:00,
2013-02-24 06:30:00,27.5,26.0,29.80,NNE,30,0.0,4.0,93,0.00,,,0.00,weatherlink.com 1.10,2013-02-24 13:30:00,
2013-02-24 06:45:00,27.5,26.0,29.80,ENE,67,0.0,4.0,93,0.00,,,0.00,weatherlink.com 1.10,2013-02-24 13:45:00,
2013-02-24 07:00:00,27.5,26.0,29.81,NE,41,0.0,3.0,93,0.00,,,0.00,weatherlink.com 1.10,2013-02-24 14:00:00,
2013-02-24 07:15:00,27.5,26.0,29.82,ENE,75,0.0,3.0,93,0.00,,,0.00,weatherlink.com 1.10,2013-02-24 14:15:00,
2013-02-24 07:30:00,27.1,25.0,29.82,NW,321,3.0,7.0,92,0.00,,,0.00,weatherlink.com 1.10,2013-02-24 14:30:00,
2013-02-24 07:46:00,26.9,25.0,29.83,NNE,15,2.0,7.0,93,0.00,,,0.00,weatherlink.com 1.10,2013-02-24 14:46:00,
2013-02-24 08:01:00,26.8,25.0,29.83,NE,40,0.0,6.0,93,0.00,,,0.00,weatherlink.com 1.10,2013-02-24 15:01:00,
2013-02-24 08:16:00,27.0,25.0,29.84,ENE,57,0.0,4.0,93,0.00,,,0.00,weatherlink.com 1.10,2013-02-24 15:16:00,
2013-02-24 08:31:00,27.1,25.0,29.84,ESE,112,5.0,10.0,93,0.00,,,0.00,weatherlink.com 1.10,2013-02-24 15:31:00,
2013-02-24 08:46:00,26.7,25.0,29.85,NNE,30,3.0,11.0,92,0.00,,,0.00,weatherlink.com 1.10,2013-02-24 15:46:00,
2013-02-24 09:01:00,26.3,25.0,29.85,NE,40,2.0,14.0,93,0.00,,,0.00,weatherlink.com 1.10,2013-02-24 16:01:00,
2013-02-24 09:16:00,26.4,25.0,29.86,NNE,27,3.0,9.0,93,0.00,,,0.00,weatherlink.com 1.10,2013-02-24 16:16:00,
2013-02-24 09:31:00,26.6,25.0,29.86,NNW,333,3.0,11.0,93,0.00,,,0.00,weatherlink.com 1.10,2013-02-24 16:31:00,
2013-02-24 09:46:00,26.5,25.0,29.87,NNE,25,5.0,11.0,93,0.00,,,0.00,weatherlink.com 1.10,2013-02-24 16:46:00,
2013-02-24 10:01:00,26.4,25.0,29.89,NNW,347,8.0,13.0,93,0.00,,,0.00,weatherlink.com 1.10,2013-02-24 17:01:00,
2013-02-24 10:16:00,25.4,24.0,29.89,NNW,342,3.0,14.0,93,0.00,,,0.00,weatherlink.com 1.10,2013-02-24 17:16:00,
2013-02-24 10:31:00,25.0,23.0,29.91,NE,43,10.0,13.0,93,0.00,,,0.00,weatherlink.com 1.10,2013-02-24 17:31:00,
2013-02-24 10:46:00,25.2,24.0,29.92,NNW,342,6.0,11.0,93,0.00,,,0.00,weatherlink.com 1.10,2013-02-24 17:46:00,
2013-02-24 11:01:00,25.2,24.0,29.93,NNW,337,5.0,9.0,93,0.00,,,0.00,weatherlink.com 1.10,2013-02-24 18:01:00,
2013-02-24 11:16:00,25.4,24.0,29.94,NNE,15,3.0,12.0,93,0.00,,,0.00,weatherlink.com 1.10,2013-02-24 18:16:00,
2013-02-24 11:31:00,25.6,24.0,29.94,NW,321,2.0,12.0,93,0.00,,,0.00,weatherlink.com 1.10,2013-02-24 18:31:00,
2013-02-24 11:46:00,25.8,24.0,29.95,NNW,347,6.0,12.0,93,0.00,,,0.00,weatherlink.com 1.10,2013-02-24 18:46:00,
2013-02-24 12:01:00,25.6,24.0,29.95,North,359,5.0,11.0,93,0.00,,,0.00,weatherlink.com 1.10,2013-02-24 19:01:00,
2013-02-24 12:16:00,25.9,24.0,29.96,NNE,18,2.0,8.0,94,0.00,,,0.00,weatherlink.com 1.10,2013-02-24 19:16:00,
2013-02-24 12:31:00,26.1,24.0,29.96,North,5,5.0,10.0,93,0.00,,,0.00,weatherlink.com 1.10,2013-02-24 19:31:00,
2013-02-24 12:46:00,25.7,24.0,29.97,NNE,25,5.0,11.0,93,0.00,,,0.00,weatherlink.com 1.10,2013-02-24 19:46:00,
2013-02-24 13:01:00,25.9,24.0,29.97,NNW,347,3.0,9.0,93,0.00,,,0.00,weatherlink.com 1.10,2013-02-24 20:01:00,
2013-02-24 13:16:00,25.9,24.0,29.98,North,349,7.0,12.0,94,0.00,,,0.00,weatherlink.com 1.10,2013-02-24 20:16:00,
2013-02-24 13:31:00,26.3,25.0,29.98,North,5,4.0,10.0,94,0.00,,,0.00,weatherlink.com 1.10,2013-02-24 20:31:00,
2013-02-24 13:46:00,26.0,24.0,29.98,NNW,340,1.0,10.0,93,0.00,,,0.00,weatherlink.com 1.10,2013-02-24 20:46:00,
2013-02-24 14:01:00,25.8,24.0,29.98,North,354,7.0,13.0,93,0.00,,,0.00,weatherlink.com 1.10,2013-02-24 21:01:00,
2013-02-24 14:16:00,26.0,24.0,29.99,NNW,348,3.0,12.0,93,0.00,,,0.00,weatherlink.com 1.10,2013-02-24 21:16:00,
2013-02-24 14:31:00,26.1,24.0,30.00,North,359,6.0,9.0,93,0.00,,,0.00,weatherlink.com 1.10,2013-02-24 21:31:00,
2013-02-24 14:47:00,25.9,24.0,30.01,North,359,5.0,11.0,93,0.00,,,0.00,weatherlink.com 1.10,2013-02-24 21:47:00,
2013-02-24 15:02:00,25.6,24.0,30.02,North,352,7.0,10.0,93,0.00,,,0.00,weatherlink.com 1.10,2013-02-24 22:02:00,
2013-02-24 15:17:00,25.8,24.0,30.03,NE,44,7.0,12.0,94,0.00,,,0.00,weatherlink.com 1.10,2013-02-24 22:17:00,
2013-02-24 15:32:00,25.7,24.0,30.04,WNW,298,5.0,13.0,94,0.00,,,0.00,weatherlink.com 1.10,2013-02-24 22:32:00,
2013-02-24 15:47:00,25.4,24.0,30.05,NNW,347,6.0,11.0,93,0.00,,,0.00,weatherlink.com 1.10,2013-02-24 22:47:00,
2013-02-24 16:02:00,25.1,24.0,30.06,North,4,6.0,11.0,94,0.00,,,0.00,weatherlink.com 1.10,2013-02-24 23:02:00,
2013-02-24 16:17:00,24.9,24.0,30.07,NNE,25,8.0,12.0,94,0.00,,,0.00,weatherlink.com 1.10,2013-02-24 23:17:00,
2013-02-24 16:32:00,24.8,23.0,30.09,NNW,330,1.0,10.0,94,0.00,,,0.00,weatherlink.com 1.10,2013-02-24 23:32:00,
2013-02-24 16:47:00,24.8,23.0,30.10,NE,50,2.0,8.0,94,0.00,,,0.00,weatherlink.com 1.10,2013-02-24 23:47:00,
2013-02-24 17:02:00,24.6,23.0,30.11,NNE,20,5.0,9.0,94,0.00,,,0.00,weatherlink.com 1.10,2013-02-25 00:02:00,
2013-02-24 17:17:00,24.5,23.0,30.12,NE,36,1.0,10.0,94,0.00,,,0.00,weatherlink.com 1.10,2013-02-25 00:17:00,
2013-02-24 17:32:00,24.4,23.0,30.13,WNW,303,3.0,9.0,94,0.00,,,0.00,weatherlink.com 1.10,2013-02-25 00:32:00,
2013-02-24 17:47:00,24.2,23.0,30.14,NW,316,3.0,12.0,94,0.00,,,0.00,weatherlink.com 1.10,2013-02-25 00:47:00,
2013-02-24 18:02:00,24.1,23.0,30.15,NNE,12,8.0,10.0,94,0.00,,,0.00,weatherlink.com 1.10,2013-02-25 01:02:00,
2013-02-24 18:17:00,23.8,22.0,30.16,North,4,4.0,10.0,94,0.00,,,0.00,weatherlink.com 1.10,2013-02-25 01:17:00,
2013-02-24 18:32:00,23.6,22.0,30.16,NE,41,5.0,8.0,94,0.00,,,0.00,weatherlink.com 1.10,2013-02-25 01:32:00,
2013-02-24 18:47:00,23.6,22.0,30.17,NNE,27,2.0,6.0,94,0.00,,,0.00,weatherlink.com 1.10,2013-02-25 01:47:00,
2013-02-24 19:02:00,23.7,22.0,30.18,North,359,1.0,6.0,94,0.00,,,0.00,weatherlink.com 1.10,2013-02-25 02:02:00,
2013-02-24 19:17:00,23.6,22.0,30.18,NNE,19,1.0,6.0,94,0.00,,,0.00,weatherlink.com 1.10,2013-02-25 02:17:00,
2013-02-24 19:32:00,23.5,22.0,30.19,NNE,25,1.0,7.0,94,0.00,,,0.00,weatherlink.com 1.10,2013-02-25 02:32:00,
2013-02-24 19:47:00,23.7,22.0,30.20,NE,45,1.0,5.0,94,0.00,,,0.00,weatherlink.com 1.10,2013-02-25 02:47:00,
2013-02-24 20:02:00,23.6,22.0,30.20,NNE,18,0.0,5.0,94,0.01,,,0.01,weatherlink.com 1.10,2013-02-25 03:02:00,
2013-02-24 20:17:00,23.3,22.0,30.20,NE,54,2.0,7.0,94,0.01,,,0.01,weatherlink.com 1.10,2013-02-25 03:17:00,
2013-02-24 20:32:00,23.2,22.0,30.21,NNW,337,0.0,3.0,94,0.01,,,0.01,weatherlink.com 1.10,2013-02-25 03:32:00,
2013-02-24 20:47:00,23.0,22.0,30.21,North,349,0.0,2.0,94,0.01,,,0.01,weatherlink.com 1.10,2013-02-25 03:47:00,
2013-02-24 21:02:00,22.7,21.0,30.21,NW,319,0.0,2.0,93,0.00,,,0.01,weatherlink.com 1.10,2013-02-25 04:02:00,
2013-02-24 21:17:00,22.4,21.0,30.22,NNW,334,0.0,1.0,93,0.00,,,0.01,weatherlink.com 1.10,2013-02-25 04:17:00,
2013-02-24 21:33:00,22.1,20.0,30.22,NNW,334,0.0,1.0,93,0.00,,,0.01,weatherlink.com 1.10,2013-02-25 04:33:00,
2013-02-24 21:48:00,22.0,20.0,30.22,NNW,334,0.0,0.0,93,0.00,,,0.01,weatherlink.com 1.10,2013-02-25 04:48:00,
2013-02-24 22:03:00,21.3,20.0,30.22,NNW,335,0.0,0.0,93,0.00,,,0.01,weatherlink.com 1.10,2013-02-25 05:03:00,
2013-02-24 22:18:00,20.2,19.0,30.22,NNW,335,0.0,0.0,93,0.00,,,0.01,weatherlink.com 1.10,2013-02-25 05:18:00,
2013-02-24 22:33:00,19.3,17.0,30.22,NNW,334,0.0,0.0,92,0.00,,,0.01,weatherlink.com 1.10,2013-02-25 05:33:00,
2013-02-24 22:48:00,17.9,16.0,30.21,NNW,335,0.0,0.0,92,0.00,,,0.01,weatherlink.com 1.10,2013-02-25 05:48:00,
2013-02-24 23:03:00,17.1,15.0,30.21,NNW,334,0.0,0.0,92,0.00,,,0.01,weatherlink.com 1.10,2013-02-25 06:03:00,
2013-02-24 23:18:00,16.5,14.0,30.22,NNW,335,0.0,0.0,91,0.00,,,0.01,weatherlink.com 1.10,2013-02-25 06:18:00,
2013-02-24 23:33:00,15.2,13.0,30.22,NNW,335,0.0,0.0,91,0.00,,,0.01,weatherlink.com 1.10,2013-02-25 06:33:00,
2013-02-24 23:48:00,14.3,12.0,30.22,NNW,335,0.0,0.0,91,0.00,,,0.01,weatherlink.com 1.10,2013-02-25 06:48:00,